{"data":{"norad_id":65429,"intl_designator":"2025-192AB","name":"STARLINK-35014","alt_names":[],"object_type":"PAYLOAD","status":"ACTIVE","operator":null,"country":"US","launch_date":"2025-08-31","launch_site_code":"AFETR","launch_vehicle":null,"mission":null,"orbit_class":"UNKNOWN","rcs_meters":null,"size_class":null,"mass_kg":null,"dimensions":null,"purposes":["comms"],"wikipedia_slug":null,"has_3d_model":false,"image_url":null,"decayed_at":null,"tle_current":{"epoch":"2026-05-24T16:10:28.471296Z","epoch_age_seconds":106360,"freshness":"FRESH","line1":"1 65429U 25192AB  26144.67394064  .00010938  00000+0  38087-3 0  9990","line2":"2 65429  53.1583 239.6963 0001281  91.5837 268.5310 15.30199137 41016","mean_motion":15.30199137,"eccentricity":0.0001281,"inclination_deg":53.1583,"raan_deg":239.6963,"arg_perigee_deg":91.5837,"mean_anomaly_deg":268.531,"bstar":0.00038087,"rev_number":4101,"period_min":94.105398779871,"perigee_km":474.3397314528,"apogee_km":476.09556091315,"semimajor_km":6853.354646183,"source":"CELESTRAK","updated_at":"2026-05-25T13:38:20.804728Z"}}}